FW7314 Weather Reports


time (UTC)temp
F
wind
direction
speed
knots
gust
knots
rain 1hr
in
rain 24hr
in
rain mn
in
humidity
%
barometer
mb
20260503200554 84 0.0 0.0 0.00 0.00 0.00 32 1009.6
20260503195835 84 0.0 0.0 0.00 0.00 0.00 36 1009.7
20260503195335 83 0.0 0.0 0.00 0.00 0.00 33 1009.6
20260503194834 83 0.0 0.0 0.00 0.00 0.00 36 1009.7
20260503194556 83 0.0 0.0 0.00 0.00 0.00 36 1009.7
20260503194100 83 0.0 0.0 0.00 0.00 0.00 39 1009.8
20260503193552 82 0.0 0.0 0.00 0.00 0.00 39 1009.8
20260503193051 82 0.0 0.0 0.00 0.00 0.00 37 1009.7
20260503192336 82 0.0 0.0 0.00 0.00 0.00 36 1009.9
20260503191833 82 0.0 0.0 0.00 0.00 0.00 38 1010.0
20260503191334 82 0.0 0.0 0.00 0.00 0.00 36 1010.2
20260503191051 82 0.0 0.0 0.00 0.00 0.00 39 1010.2
20260503191042 83 0.0 0.0 0.00 0.00 0.00 38 1010.2
20260503185835 82 0.0 0.0 0.00 0.00 0.00 37 1010.2
20260503185335 82 0.0 0.0 0.00 0.00 0.00 39 1010.4
20260503184835 81 0.0 0.0 0.00 0.00 0.00 40 1010.3
20260503184335 81 0.0 0.0 0.00 0.00 0.00 40 1010.4
20260503183836 81 0.0 0.0 0.00 0.00 0.00 38 1010.5
20260503183335 80 0.0 0.0 0.00 0.00 0.00 39 1010.5
20260503182835 80 0.0 0.0 0.00 0.00 0.00 39 1010.6
20260503182334 80 0.0 0.0 0.00 0.00 0.00 41 1010.7
20260503181835 81 0.0 0.0 0.00 0.00 0.00 41 1010.7
20260503181557 82 0.0 0.0 0.00 0.00 0.00 42 1010.8
20260503180834 82 0.0 0.0 0.00 0.00 0.00 43 1010.7
20260503180334 82 0.0 0.0 0.00 0.00 0.00 43 1010.9
20260503175834 81 0.0 0.0 0.00 0.00 0.00 40 1011.0
20260503175336 82 0.0 0.0 0.00 0.00 0.00 40 1010.9
20260503174834 81 0.0 0.0 0.00 0.00 0.00 41 1011.0
20260503174334 80 0.0 0.0 0.00 0.00 0.00 44 1011.0
20260503173836 80 0.0 0.0 0.00 0.00 0.00 44 1011.1
20260503173336 80 0.0 0.0 0.00 0.00 0.00 47 1011.1
20260503172835 79 0.0 0.0 0.00 0.00 0.00 44 1011.2
20260503172334 78 0.0 0.0 0.00 0.00 0.00 46 1011.2
20260503171835 77 0.0 0.0 0.00 0.00 0.00 48 1011.0
20260503171335 77 0.0 0.0 0.00 0.00 0.00 47 1011.2
20260503170836 76 0.0 0.0 0.00 0.00 0.00 50 1011.2
20260503170335 76 0.0 0.0 0.00 0.00 0.00 49 1011.2
20260503150834 61 0.0 0.0 0.00 0.00 0.00 89 1011.7
20260503150335 60 0.0 0.0 0.00 0.00 0.00 90 1011.6
20260503131335 52 0.0 0.0 0.00 0.00 0.00 91 1011.2
20260503130834 52 0.0 0.0 0.00 0.00 0.00 92 1011.2
20260503130334 52 0.0 0.0 0.00 0.00 0.00 91 1011.1
20260503110556 53 0.0 0.0 0.00 0.00 0.00 93 1011.7
20260503090323 55 0.0 0.0 0.00 0.00 0.00 88 1011.9
20260503081324 56 0.0 0.0 0.00 0.00 0.00 91 1012.0
20260503080823 56 0.0 0.0 0.00 0.00 0.00 86 1012.1
20260503080322 56 0.0 0.0 0.00 0.00 0.00 86 1012.1
20260503072824 57 0.0 0.0 0.00 0.00 0.00 86 1012.0
20260503072322 57 0.0 0.0 0.00 0.00 0.00 88 1012.1
20260503071822 58 0.0 0.0 0.00 0.00 0.00 86 1012.1
20260503071322 58 0.0 0.0 0.00 0.00 0.00 85 1012.2
20260503071044 58 0.0 0.0 0.00 0.00 0.00 84 1012.0
20260503070323 58 0.0 0.0 0.00 0.00 0.00 84 1012.1
20260503060305 59 0.0 0.0 0.00 0.00 0.00 82 1012.1
20260503054805 60 0.0 0.0 0.00 0.00 0.00 84 1012.1
20260503054305 60 0.0 0.0 0.00 0.00 0.00 84 1011.9
20260503053804 60 0.0 0.0 0.00 0.00 0.00 80 1012.0
20260503053305 60 0.0 0.0 0.00 0.00 0.00 82 1011.9
20260503052804 60 0.0 0.0 0.00 0.00 0.00 83 1012.1
20260503052307 61 0.0 0.0 0.00 0.00 0.00 82 1012.0
20260503051805 61 0.0 0.0 0.00 0.00 0.00 79 1012.0
20260503051305 61 0.0 0.0 0.00 0.00 0.00 81 1011.9
20260503050805 61 0.0 0.0 0.00 0.00 0.00 80 1012.1
20260503050530 61 0.0 0.0 0.00 0.00 0.00 81 1012.3
20260503050032 61 0.0 0.0 0.00 0.00 0.00 77 1012.7
20260503045305 62 0.0 0.0 0.00 0.00 0.00 77 1012.3
20260503044805 62 0.0 0.0 0.00 0.00 0.00 77 1012.3
20260503044305 62 0.0 0.0 0.00 0.00 0.00 79 1012.0
20260503043805 62 0.0 0.0 0.00 0.00 0.00 78 1012.2
20260503043305 62 0.0 0.0 0.00 0.00 0.00 76 1012.0
20260503042805 62 0.0 0.0 0.00 0.00 0.00 78 1012.0
20260503042525 62 0.0 0.0 0.00 0.00 0.00 76 1012.1
20260503041807 62 0.0 0.0 0.00 0.00 0.00 75 1012.4
20260503041306 63 0.0 0.0 0.00 0.00 0.00 75 1012.2
20260503040805 63 0.0 0.0 0.00 0.00 0.00 75 1012.3
20260503040305 63 0.0 0.0 0.00 0.00 0.00 75 1012.3
20260503035804 63 0.0 0.0 0.00 0.00 0.00 73 1012.3
20260503035306 63 0.0 0.0 0.00 0.00 0.00 74 1012.1
20260503034806 64 0.0 0.0 0.00 0.00 0.00 76 1012.0
20260503034307 64 0.0 0.0 0.00 0.00 0.00 75 1011.9
20260503033759 64 0.0 0.0 0.00 0.00 0.00 72 1012.0
20260503033517 64 0.0 0.0 0.00 0.00 0.00 73 1011.9
20260503032759 64 0.0 0.0 0.00 0.00 0.00 73 1011.8
20260503032258 64 0.0 0.0 0.00 0.00 0.00 71 1011.8
20260503031758 65 0.0 0.0 0.00 0.00 0.00 73 1011.6
20260503031259 65 0.0 0.0 0.00 0.00 0.00 71 1011.6
20260503030759 65 0.0 0.0 0.00 0.00 0.00 70 1011.8
20260503030259 65 0.0 0.0 0.00 0.00 0.00 70 1011.9
20260503030041 65 0.0 0.0 0.00 0.00 0.00 70 1011.8
20260503025300 66 0.0 0.0 0.00 0.00 0.00 69 1011.7
20260503024758 66 0.0 0.0 0.00 0.00 0.00 70 1011.7
20260503024259 66 0.0 0.0 0.00 0.00 0.00 68 1011.7
20260503023759 66 0.0 0.0 0.00 0.00 0.00 69 1011.9
20260503023259 67 0.0 0.0 0.00 0.00 0.00 68 1011.8
20260503022759 67 0.0 0.0 0.00 0.00 0.00 67 1011.8
20260503022247 68 0.0 0.0 0.00 0.00 0.00 67 1011.9
20260503021747 68 0.0 0.0 0.00 0.00 0.00 67 1011.9
20260503021247 69 0.0 0.0 0.00 0.00 0.00 66 1011.8
20260503021016 69 0.0 0.0 0.00 0.00 0.00 65 1011.9
20260503020246 69 0.0 0.0 0.00 0.00 0.00 63 1011.7
20260503020008 70 0.0 0.0 0.00 0.00 0.00 63 1011.4
20260503015248 70 0.0 0.0 0.00 0.00 0.00 63 1011.3
20260503014747 70 0.0 0.0 0.00 0.00 0.00 62 1011.0
20260503014247 70 0.0 0.0 0.00 0.00 0.00 61 1011.2
20260503013749 71 0.0 0.0 0.00 0.00 0.00 61 1011.0
20260503013246 71 0.0 0.0 0.00 0.00 0.00 62 1010.9
20260503012747 71 0.0 0.0 0.00 0.00 0.00 60 1010.9
20260503012505 71 0.0 0.0 0.00 0.00 0.00 60 1010.9
20260503011734 71 0.0 0.0 0.00 0.00 0.00 60 1010.9
20260503011235 71 0.0 0.0 0.00 0.00 0.00 59 1010.9
20260503010734 72 0.0 0.0 0.00 0.00 0.00 59 1011.2
20260503010235 72 0.0 0.0 0.00 0.00 0.00 60 1010.9
20260503005735 72 0.0 0.0 0.00 0.00 0.00 60 1010.9
20260503005233 72 0.0 0.0 0.00 0.00 0.00 58 1011.1
20260503004733 72 0.0 0.0 0.00 0.00 0.00 59 1010.9
20260503004233 72 0.0 0.0 0.00 0.00 0.00 59 1011.1
20260503003733 71 0.0 0.0 0.00 0.00 0.00 58 1010.8
20260503003233 72 0.0 0.0 0.00 0.00 0.00 56 1010.8
20260503002733 72 0.0 0.0 0.00 0.00 0.00 58 1011.0
20260503002233 72 0.0 0.0 0.00 0.00 0.00 58 1010.8
20260503001734 72 0.0 0.0 0.00 0.00 0.00 55 1011.1
20260503001233 72 0.0 0.0 0.00 0.00 0.00 58 1010.9
20260503000733 72 0.0 0.0 0.00 0.00 0.00 56 1011.0
20260503000247 73 0.0 0.0 0.00 0.00 0.00 57 1011.0
20260502235733 73 0.0 0.0 0.00 0.00 0.00 54 1011.1
20260502235233 73 0.0 0.0 0.00 0.00 0.00 55 1011.2
20260502234733 73 0.0 0.0 0.00 0.00 0.00 55 1011.2
20260502234234 74 0.0 0.0 0.00 0.00 0.00 51 1011.2
20260502233733 76 0.0 0.0 0.00 0.00 0.00 53 1011.4
20260502233233 73 0.0 0.0 0.00 0.00 0.00 58 1011.4
20260502232747 71 0.0 0.0 0.00 0.00 0.00 59 1011.4
20260502232232 70 0.0 0.0 0.00 0.00 0.00 60 1011.5
20260502231733 70 0.0 0.0 0.00 0.00 0.00 59 1011.7
20260502231235 70 0.0 0.0 0.00 0.00 0.00 59 1011.5
20260502230733 70 0.0 0.0 0.00 0.00 0.00 59 1011.5
20260502230657 70 0.0 0.0 0.00 0.00 0.00 59 1011.9
20260502230430 70 0.0 0.0 0.00 0.00 0.00 58 1011.7
20260502225234 69 0.0 0.0 0.00 0.00 0.00 61 1011.8
20260502224747 69 0.0 0.0 0.00 0.00 0.00 59 1011.9
20260502224233 69 0.0 0.0 0.00 0.00 0.00 61 1012.0
20260502223733 68 0.0 0.0 0.00 0.00 0.00 60 1012.2
20260502223714 68 0.0 0.0 0.00 0.00 0.00 62 1012.2
20260502222723 68 0.0 0.0 0.00 0.00 0.00 62 1012.3
20260502222223 67 0.0 0.0 0.00 0.00 0.00 63 1012.4
20260502221723 67 0.0 0.0 0.00 0.00 0.00 64 1012.5
20260502221450 66 0.0 0.0 0.00 0.00 0.00 63 1012.5
20260502220723 66 0.0 0.0 0.00 0.00 0.00 64 1012.5
20260502220222 66 0.0 0.0 0.00 0.00 0.00 63 1012.9
20260502215723 66 0.0 0.0 0.00 0.00 0.00 62 1012.7
20260502215222 66 0.0 0.0 0.00 0.00 0.00 63 1012.7
20260502214723 66 0.0 0.0 0.00 0.00 0.00 63 1013.0
20260502214448 65 0.0 0.0 0.00 0.00 0.00 66 1013.0
20260502213710 65 0.0 0.0 0.00 0.00 0.00 65 1013.2
20260502213212 64 0.0 0.0 0.00 0.00 0.00 66 1013.1
20260502212710 64 0.0 0.0 0.00 0.00 0.00 68 1013.1
20260502212212 64 0.0 0.0 0.00 0.00 0.00 66 1013.2
20260502211705 64 0.0 0.0 0.00 0.00 0.00 66 1013.3
20260502211205 63 0.0 0.0 0.00 0.00 0.00 67 1013.5
20260502210707 63 0.0 0.0 0.00 0.00 0.00 68 1013.7
20260502210205 63 0.0 0.0 0.00 0.00 0.00 69 1013.6
20260502205705 63 0.0 0.0 0.00 0.00 0.00 68 1013.6
20260502205205 63 0.0 0.0 0.00 0.00 0.00 68 1013.5
20260502204704 62 0.0 0.0 0.00 0.00 0.00 68 1013.7
20260502204205 62 0.0 0.0 0.00 0.00 0.00 70 1013.8
20260502203705 62 0.0 0.0 0.00 0.00 0.00 69 1014.1
20260502203205 62 0.0 0.0 0.00 0.00 0.00 70 1014.2
20260502202704 62 0.0 0.0 0.00 0.00 0.00 69 1014.2
20260502202205 62 0.0 0.0 0.00 0.00 0.00 70 1014.2
20260502201928 62 0.0 0.0 0.00 0.00 0.00 70 1014.1
20260502201205 61 0.0 0.0 0.00 0.00 0.00 71 1014.2